Location: Zlin
(49.2330°N, 17.6670°E)
Time: 04:05:50
(UTC+02:00)

Tiangong - Visible Passes

Search period start: 07 October 2022 00:00
Search period end: 17 October 2022 00:00
Orbit: 383 x 385 km, 41.5° (Epoch: 06 October)

Date Brightness Start Highest point End Pass type
(mag) Time Alt. Az. Time Alt. Az. Time Alt. Az.
09 Oct 0.4 19:52:50 10° SSW 19:53:33 12° S 19:53:33 12° S visible
10 Oct 0.8 20:28:20 10° SW 20:28:34 11° SW 20:28:34 11° SW visible
11 Oct -0.1 19:28:37 10° SSW 19:30:42 16° SSE 19:31:17 16° SSE visible
12 Oct 0.0 20:04:27 10° SW 20:06:05 18° SSW 20:06:05 18° SSW visible
13 Oct -0.1 19:04:28 10° SW 19:06:47 19° S 19:08:37 12° SE visible
13 Oct 1.1 20:40:45 10° SW 20:40:47 10° SW 20:40:47 10° SW visible
14 Oct -0.2 19:40:28 10° SW 19:42:51 20° S 19:43:16 19° S visible
15 Oct -0.1 18:40:15 10° SW 18:42:39 20° S 18:45:04 10° SE visible
15 Oct 0.6 20:16:56 10° SW 20:17:51 13° SW 20:17:51 13° SW visible
16 Oct 0.1 19:16:22 10° SW 19:18:35 18° S 19:20:15 13° SSE visible
